Weather History for KVIH - February, 2014

Change the Weather History Date:

Monday, February 17, 2014

  Actual Average Record
Temperature  
Mean Temperature 41 °F 36 °F  
Max Temperature 50 °F 46 °F 73 °F (2011)
Min Temperature 31 °F 26 °F -18 °F (1903)
Degree Days  
Heating Degree Days 24 29  
Month to date heating degree days 700 525  
Since 1 July heating degree days 3988 3493  
Cooling Degree Days 0 0  
Month to date cooling degree days 0 0  
Year to date cooling degree days 0 0  
Moisture  
Dew Point 30 °F    
Average Humidity 65    
Maximum Humidity 92    
Minimum Humidity 38    
Precipitation  
Precipitation 0.04 in 0.07 in 1.01 in (2000)
Month to date precipitation 0.32 1.11  
Year to date precipitation 1.17 3.28  
Sea Level Pressure  
Sea Level Pressure 29.91 in    
Wind  
Wind Speed 15 mph (SW)    
Max Wind Speed 31 mph    
Max Gust Speed 42 mph    
Visibility 8 miles    
Events      
T = Trace of Precipitation, MM = Missing Value Source: NWS Daily Summary

Daily Weather History Graph

Daily Weather History Graph

Search for Another Location

Airport or City:

Trip Planner

Search our weather history database for the weather conditions in past years. The results will help you decide how hot, cold, wet, or windy it might be!

Date:

Astronomy

Feb. 17, 2014 Rise Set
Actual Time 6:54 AM CST 5:47 PM CST
Civil Twilight 6:27 AM CST 6:14 PM CST
Nautical Twilight 5:57 AM CST 6:45 PM CST
Astronomical Twilight 5:26 AM CST 7:16 PM CST
Moon 8:39 PM CST (2/17) 7:58 AM CST (2/17)
Length of Visible Light 11h 46m
Length of Day
10h 53m
Waning Gibbous, 93% of the Moon is Illuminated
Feb 17
Waning Gibbous
Feb 22
Last Quarter
Mar 1
New
Mar 8
First Quarter
Mar 16
Full

Hourly Weather History & Observations

Time (CST) Temp. Windchill Dew Point Humidity Pressure Visibility Wind Dir Wind Speed Gust Speed Precip Events Conditions
12:53 AM 30.9 °F 20.2 °F 26.1 °F 82% 30.02 in 8.0 mi ESE 15.0 mph - N/A   Overcast
1:53 AM 30.9 °F 20.2 °F 25.0 °F 79% 29.99 in 8.0 mi ESE 15.0 mph - N/A   Overcast
2:53 AM 30.9 °F 20.2 °F 25.0 °F 79% 29.95 in 9.0 mi ESE 15.0 mph 23.0 mph N/A   Overcast
3:53 AM 32.0 °F 21.2 °F 25.0 °F 75% 29.92 in 9.0 mi SE 16.1 mph - 0.00 in   Overcast
4:53 AM 33.1 °F 24.4 °F 25.0 °F 72% 29.91 in 10.0 mi SSE 11.5 mph - N/A   Mostly Cloudy
5:53 AM 34.0 °F 22.7 °F 26.1 °F 73% 29.87 in 9.0 mi SSE 19.6 mph 27.6 mph N/A   Unknown
6:53 AM 35.1 °F 25.2 °F 27.0 °F 72% 29.84 in 10.0 mi South 16.1 mph - N/A   Scattered Clouds
7:46 AM 34.0 °F 23.8 °F 30.9 °F 89% 29.80 in 6.0 mi South 16.1 mph - 0.03 in   Overcast
7:53 AM 35.1 °F 25.2 °F 30.9 °F 85% 29.83 in 6.0 mi South 16.1 mph - 0.04 in   Overcast
8:08 AM 35.1 °F 24.5 °F 30.9 °F 85% 29.80 in 6.0 mi South 18.4 mph - N/A   Overcast
8:53 AM 36.0 °F 26.3 °F 33.1 °F 89% 29.81 in 5.0 mi South 16.1 mph 26.5 mph N/A   Overcast
9:40 AM 37.0 °F 26.4 °F 35.1 °F 93% 29.77 in 4.0 mi SSW 20.7 mph 24.2 mph N/A   Overcast
9:53 AM 37.9 °F 28.5 °F 36.0 °F 93% 29.80 in 4.0 mi SSW 17.3 mph - N/A   Overcast
10:15 AM 37.9 °F 29.2 °F 36.0 °F 93% 29.78 in 4.0 mi SSW 15.0 mph - N/A   Overcast
10:47 AM 39.2 °F 31.2 °F 37.4 °F 93% 29.81 in 1.8 mi SW 13.8 mph - N/A   Overcast
10:48 AM 39.0 °F 31.0 °F 37.0 °F 93% 29.83 in 1.8 mi SW 13.8 mph - N/A   Overcast
11:04 AM 39.9 °F 32.1 °F 37.9 °F 93% 29.81 in 2.5 mi SW 13.8 mph - N/A   Overcast
11:11 AM 41.0 °F 33.5 °F 39.0 °F 93% 29.81 in 3.0 mi SW 13.8 mph - N/A   Overcast
11:38 AM 44.1 °F 36.8 °F 39.9 °F 85% 29.81 in 5.0 mi WSW 16.1 mph 28.8 mph N/A   Overcast
11:53 AM 46.9 °F - 39.9 °F 77% 29.84 in 9.0 mi West 21.9 mph 28.8 mph N/A   Overcast
12:05 PM 45.0 °F 35.2 °F 37.0 °F 74% 29.85 in 10.0 mi West 29.9 mph 41.4 mph N/A   Overcast
12:50 PM 46.4 °F 38.7 °F 37.4 °F 71% 29.86 in 10.0 mi West 20.7 mph 29.9 mph N/A   Scattered Clouds
12:53 PM 46.9 °F - 37.0 °F 68% 29.89 in 10.0 mi West 26.5 mph 36.8 mph N/A   Scattered Clouds
1:53 PM 46.0 °F 38.0 °F 33.1 °F 61% 29.94 in 10.0 mi NW 21.9 mph 35.7 mph N/A   Clear
2:53 PM 48.0 °F - 33.1 °F 56% 29.93 in 10.0 mi WNW 15.0 mph - N/A   Clear
3:53 PM 50.0 °F - 30.9 °F 48% 29.96 in 10.0 mi WNW 12.7 mph 23.0 mph N/A   Clear
4:53 PM 50.0 °F - 26.1 °F 39% 30.00 in 10.0 mi West 18.4 mph - N/A   Clear
5:53 PM 46.0 °F 40.6 °F 23.0 °F 40% 30.04 in 10.0 mi West 11.5 mph - N/A   Clear
6:53 PM 43.0 °F 37.7 °F 23.0 °F 45% 30.05 in 10.0 mi West 9.2 mph - N/A   Clear
7:53 PM 36.0 °F 29.0 °F 21.9 °F 57% 30.05 in 10.0 mi WSW 9.2 mph - N/A   Clear
8:53 PM 39.0 °F 31.4 °F 21.9 °F 50% 30.06 in 10.0 mi SW 12.7 mph - N/A   Clear
9:53 PM 39.0 °F 31.8 °F 21.9 °F 50% 30.06 in 10.0 mi SW 11.5 mph - N/A   Clear
10:53 PM 37.0 °F 29.3 °F 21.9 °F 54% 30.06 in 10.0 mi SW 11.5 mph - N/A   Clear
11:53 PM 36.0 °F 27.5 °F 23.0 °F 59% 30.05 in 10.0 mi SSW 12.7 mph - N/A   Clear